Voltar ao catálogo

FENGYUN 1C DEB

AtivoPO
NORAD 31058·DEBRIS·🇨🇳 China

Lançado May 10, 1999 de Taiyuan Satellite Launch Center

Loading…

Próximas Passagens (próximas 24 horas)

TLE

EnvelhecendoSource: Space-Track

Época: Sep 10, 2026, 06:41 UTC

1 31058U 99025BFC 26253.27872102  .00003885  00000-0  48266-3 0  9992
2 31058  99.5875 259.0669 0086926 349.8694  10.0758 14.80728426 35071

Acompanhe FENGYUN 1C DEB em tempo real com AllMySat

Download on the App Store